Location: Unspecified
(0.0000°N, 0.0000°E)
Time: 11:42:44
(UTC+02:00)

USA 116 - Visible Passes

Search period start: 23 July 2014 00:00
Search period end: 02 August 2014 00:00
Orbit: 405 x 834 km, 97.9° (Epoch: 18 November)

Date Brightness Start Highest point End Pass type
(mag) Time Alt. Az. Time Alt. Az. Time Alt. Az.
23 Jul 6.1 05:38:59 25° ENE 05:38:59 25° ENE 05:42:45 10° NNE visible
23 Jul 5.9 07:15:59 12° W 07:15:59 12° W 07:16:54 10° WNW visible
24 Jul 5.3 05:53:49 40° ENE 05:53:49 40° ENE 05:58:04 10° N visible
25 Jul 4.4 06:08:38 65° NE 06:08:38 65° NE 06:13:07 10° N visible
26 Jul 4.0 06:23:27 70° WNW 06:23:27 70° WNW 06:27:56 10° NNW visible
27 Jul 4.4 06:38:16 45° W 06:38:16 45° W 06:42:33 10° NNW visible
28 Jul 7.0 05:16:05 13° E 05:17:09 14° ENE 05:19:42 10° NE visible
28 Jul 5.0 06:53:04 29° W 06:53:04 29° W 06:56:55 10° NW visible
29 Jul 6.4 05:30:53 21° E 05:31:49 22° ENE 05:35:40 10° NNE visible
29 Jul 5.5 07:07:52 19° W 07:07:52 19° W 07:10:58 10° NW visible
30 Jul 5.7 05:45:41 32° E 05:46:31 35° ENE 05:51:06 10° NNE visible
30 Jul 6.0 07:22:40 12° W 07:22:40 12° W 07:24:19 10° WNW visible
31 Jul 4.9 06:00:29 49° ESE 06:01:14 55° ENE 06:06:15 10° N visible
01 Aug 4.2 06:15:16 66° SSE 06:15:59 86° ENE 06:21:10 10° N visible
